Flag for Tajikistan Weather past 2 weeks in Dushanbe, Tajikistan

Now
66 °F

Clear.


Feels Like: 66 °F
Forecast: 62 / 93 °F
Wind: No wind

Location: Dushanbe Airport

Current Time: Sep 17, 2014 at 12:58:08 AM

Latest Report: Sep 17, 2014 at 12:30 AM


Visibility: 4 mi

Pressure: 29.80 "Hg

Humidity: 37%

Dew point: 39 °F

Location of DushanbeLocation

Historic Weather in Dushanbe — Graph

°F

Dushanbe temperature yesterday

Maximum temperature yesterday: 93 °F (at 1:00 PM)
Minimum temperature yesterday: 57 °F (at 5:30 AM)
Average temperature yesterday: 75 °F

Past Weeks' High & Low Weather Summary

 TemperatureHumidityPressure
High93 °F (Sep 2, 1:30 PM)63% (Sep 8, 7:00 AM)30.01 "Hg (Sep 8, 7:00 AM)
Low57 °F (Sep 7, 6:30 AM)8% (Sep 10, 2:30 PM)29.65 "Hg (Sep 5, 3:00 PM)
Average74 °F31%29.87 "Hg
* Reported Sep 1 11:00 PM — Sep 16 11:30 PM, Dushanbe, Weather by CustomWeather, © 2014

Note: Actual official high and low records may vary slightly from our data, if they occured in-between our weather recording intervals... More about our weather records

Advertising

Dushanbe weather history for previous 24 hours

 ConditionsComfort  
Time TempWeatherWind HumidityBarometerVisibility
11:30 PM
Sep 16
68 °FClear.1 mph35%29.80 "Hg4 mi
11:00 PM70 °FClear.3 mph31%29.80 "Hg5 mi
10:30 PM70 °FClear.1 mph33%29.83 "Hg5 mi
10:00 PM72 °FClear.1 mph33%29.83 "Hg3 mi
9:30 PM72 °FClear.1 mph31%29.83 "Hg4 mi
9:00 PM72 °FPassing clouds.1 mph38%29.83 "Hg4 mi
8:30 PM75 °FPassing clouds.3 mph29%29.83 "Hg2 mi
8:00 PM77 °FPassing clouds.3 mph24%29.83 "Hg5 mi
7:30 PM77 °FPassing clouds.3 mph28%29.80 "Hg4 mi
7:00 PM81 °FPassing clouds.3 mph26%29.80 "Hg4 mi
6:30 PM84 °FPassing clouds.1 mph23%29.80 "Hg4 mi
6:00 PM86 °FPassing clouds.3 mph18%29.80 "HgN/A
5:30 PM90 °FPassing clouds.1 mph14%29.80 "HgN/A
5:00 PM91 °FPassing clouds.1 mph10%29.80 "HgN/A
4:30 PM91 °FPassing clouds.No wind11%29.80 "HgN/A
4:00 PM93 °FPassing clouds.No wind9%29.80 "HgN/A
3:30 PM91 °FPassing clouds.1 mph10%29.80 "HgN/A
3:00 PM91 °FPassing clouds.1 mph11%29.80 "HgN/A
2:30 PM91 °FPassing clouds.3 mph11%29.80 "HgN/A
2:00 PM91 °FPassing clouds.1 mph10%29.83 "HgN/A
1:30 PM91 °FPassing clouds.1 mph9%29.83 "HgN/A
1:00 PM93 °FPassing clouds.1 mph8%29.86 "HgN/A
12:30 PM90 °FPassing clouds.1 mph10%29.86 "HgN/A
12:00 PM90 °FPassing clouds.3 mph14%29.86 "HgN/A
11:30 AM86 °FPassing clouds.1 mph19%29.89 "HgN/A
11:00 AM86 °FSunny.1 mph18%29.89 "HgN/A
10:30 AM82 °FSunny.1 mph25%29.92 "HgN/A
10:00 AM79 °FSunny.1 mph24%29.92 "HgN/A
9:30 AM77 °FSunny.1 mph32%29.92 "HgN/A
9:00 AM75 °FSunny.1 mph27%29.92 "Hg6 mi
8:30 AM72 °FSunny.1 mph31%29.92 "Hg6 mi
8:00 AM70 °FSunny.No wind33%29.92 "HgN/A
7:30 AM66 °FSunny.No wind43%29.92 "Hg5 mi
7:00 AM61 °FSunny.No wind52%29.92 "Hg6 mi
6:30 AM59 °FSunny.No wind51%29.92 "HgN/A
6:00 AM57 °FClear.No wind55%29.89 "HgN/A
5:30 AM57 °FClear.No wind55%29.89 "HgN/A
5:00 AM63 °FClear.3 mph39%29.89 "HgN/A
4:30 AM63 °FClear.3 mph39%29.89 "HgN/A
4:00 AM63 °FClear.1 mph42%29.89 "HgN/A
3:30 AM61 °FPassing clouds.No wind48%29.89 "HgN/A
3:00 AM63 °FPassing clouds.No wind42%29.89 "HgN/A
2:30 AM63 °FPassing clouds.No wind42%29.89 "HgN/A
2:00 AM64 °FPassing clouds.No wind40%29.89 "HgN/A
1:30 AM63 °FPassing clouds.No wind42%29.89 "HgN/A
1:00 AM64 °FPassing clouds.1 mph40%29.89 "HgN/A
12:30 AM66 °FPassing clouds.1 mph35%29.89 "Hg6 mi
12:00 AM66 °FPassing clouds.No wind35%29.89 "Hg6 mi
Weather by CustomWeather, © 2014

See weather overviewHow to use our weather pages